Simultaneous Nadir Overpasses (SNOs) Predictions

Prediction of SNOs between METOP-A and NOAA-19 Satellite Orbit:

Table of predicted SNOs for the next 14.0 days since TLE Epoch: 12/14/2013
Index Date (METOP-A) Time (METOP-A) Lat,Lon (METOP-A) SZA (METOP-A ) Date (NOAA-19) Time (NOAA-19) Lat,Lon (NOAA-19) SZA (NOAA-19 ) Distance(km) Time Diff (sec)
1 12/17/2013 00:20:21 -74.24, -10.15 82.47 12/17/2013 00:19:12 -74.27, -12.47 82.38 70.02 69
2 12/17/2013 01:11:10 73.79, 156.07 97.11 12/17/2013 01:10:03 73.76, 156.06 97.09 2.56 67
3 12/17/2013 02:01:52 -73.78, -36.62 82.91 12/17/2013 02:01:06 -73.78, -36.73 82.90 3.45 46
4 12/17/2013 02:52:33 73.72, 130.57 97.04 12/17/2013 02:52:06 73.71, 130.68 97.04 3.49 27
5 12/17/2013 03:43:15 -73.71, -62.13 82.97 12/17/2013 03:43:09 -73.72, -62.12 82.95 1.66 6
6 12/17/2013 04:33:55 73.70, 105.18 97.03 12/17/2013 04:34:10 73.70, 105.18 97.03 0.62 15
7 12/17/2013 05:24:37 -73.69, -87.51 82.99 12/17/2013 05:25:12 -73.67, -87.50 83.01 2.27 35
8 12/17/2013 06:15:17 73.68, 79.79 97.01 12/17/2013 06:16:13 73.65, 79.80 96.98 3.33 56
9 12/17/2013 07:06:00 -73.57,-113.13 83.10 12/17/2013 07:07:14 -73.61,-112.88 83.07 9.27 74
10 12/27/2013 03:36:04 -74.23, -59.11 82.48 12/27/2013 03:34:55 -74.26, -61.30 82.37 66.30 69
11 12/27/2013 04:26:53 73.78, 107.11 97.10 12/27/2013 04:25:49 73.79, 107.15 97.12 1.63 64
12 12/27/2013 05:17:35 -73.77, -85.59 82.92 12/27/2013 05:16:49 -73.78, -85.57 82.90 0.99 46
13 12/27/2013 06:08:15 73.76, 81.72 97.08 12/27/2013 06:07:52 73.73, 81.77 97.05 3.08 23
14 12/27/2013 06:58:57 -73.75,-110.98 82.94 12/27/2013 06:58:52 -73.72,-110.96 82.96 2.77 5
15 12/27/2013 07:49:37 73.73, 56.33 97.05 12/27/2013 07:49:56 73.73, 56.27 97.05 2.20 19
16 12/27/2013 08:40:19 -73.72,-136.37 82.96 12/27/2013 08:40:56 -73.72,-136.46 82.97 3.14 37
17 12/27/2013 09:31:00 73.66, 30.82 96.98 12/27/2013 09:31:59 73.67, 30.88 96.98 2.06 59
18 12/27/2013 10:21:44 -73.55,-162.10 83.12 12/27/2013 10:22:57 -73.56,-161.61 83.14 15.44 73




NCC Satellite Simultaneous Nadir Overpasses
